Location: Elbart
(49.6135°N, 11.9134°E)
Time: 19:49:09
(UTC+00:00)

STARLINK-1230 - Pass Details

Date: 09 April 2020
Orbit: 548 x 551 km, 53.0° (Epoch: 03 June)

Event Time Altitude Azimuth Distance (km) Brightness Sun altitude
Rises 19:19:40 0° 292° (WNW) 2,669 9.1 -13.3°
Reaches altitude 10° 19:21:53 10° 292° (WNW) 1,778 7.6 -13.6°
Maximum altitude 19:25:55 89° 214° (SSW) 535 3.5 -14.1°
Enters shadow 19:28:07 26° 114° (ESE) 1,068 4.5 -14.4°
